www.pogodaiklimat.ru

Погода и климат >> Архив погоды >> Аргентина >> Сан-Рафаэль


ПОГОДА в Сан-Рафаэле

  • Прогноз погоды в Сан-Рафаэле
  • Монитор погоды в Сан-Рафаэле

АРХИВ ПОГОДЫ в Сан-Рафаэле

Время (UTC), дата Ветер
(напр.,м/с)
 
Видим.   Явления Облачность Т
(С)
Тd
(С)
f
(%)
Тe
(С)
Тes
(С)
Комфортность P
(гПа)
Po
(гПа)
Тmin
(С)
Tmax
(С)
R
(мм)
R24
(мм)
S
(см)
09 19.03 С 1 20 км ясно +8.6 +0.4 56 +8 +8 1018.3 933.2
12 19.03 В 3 20 км 1/0
[Ac As]
+10.4 -0.8 46 +9 +11 1021.5 935.7 +6.1 +20.5
15 19.03 В 7 20 км ясно +16.2 -3.1 26 +15 +19 1021.8 936.1
18 19.03 В 6 20 км ясно +18.7 -3.2 22 +18 +24 1021.0 935.4
21 19.03 В 4 20 км ясно +18.3 -2.0 25 +18 +20 1022.4 936.0
00 20.03 В 5 20 км 3/0
[Ci fib]
+13.8 -2.2 33 +12 +12 1024.5 937.6 +10.5 +19.3
03 20.03 ЮЗ 2 20 км 6/0
[Cs]
+8.8 -1.2 49 +8 +8 1026.3 939.3
06 20.03 З 2 20 км 1/0
[Ac As]
+5.2 -2.3 58 +3 +3 1026.6 939.4
09 20.03 ЮЗ 2 20 км ясно +4.0 -1.9 65 +2 +2 1025.3 938.0
12 20.03 ЮЗ 2 20 км 4/0
[Ac und Cc]
+6.6 -1.1 58 +5 +7 1026.1 938.5 +2.6 +13.8
15 20.03 СВ 4 20 км 6/0
[Ac trans]
+15.2 -0.8 33 +14 +20 1025.4 938.4
18 20.03 В 5 20 км 5/0
[Ac trans]
+17.8 0.0 30 +17 +22 1023.7 936.6
21 20.03 С 4 20 км 3/0
[Ci fib]
+18.8 -1.8 25 +19 +20 1021.6 934.6
00 21.03 В 2 20 км 4/0
[Cs]
+14.3 +1.4 41 +14 +14 1022.6 935.3 +6.6 +20.5
03 21.03 штиль 0 20 км 10/0
[Cs]
+11.0 +2.2 55 +11 +11 1022.5 936.0
06 21.03 штиль 0 20 км 10/5 1200 м
[Sc diur, vesp Ac As Cs]
+8.7 +3.8 71 +8 +8 1020.7 934.4
09 21.03 З 2 20 км 1/0
[Ac trans]
+6.4 +2.4 76 +5 +5 1018.6 932.2
12 21.03 З 2 20 км 1/0
[Ac As]
+12.4 +2.7 52 +12 +14 1017.8 931.8 +5.8 +14.3
15 21.03 С 5 20 км 1/0
[Ci]
+20.0 +1.9 30 +20 +26 1016.5 931.4
18 21.03 С 9 20 км 9/0
[Cs]
+23.7 +4.4 29 +23 +25 комфорт 1012.8 928.0
21 21.03 С 7 20 км 6/0
[Cs]
+24.5 +3.0 25 +24 +24 комфорт 1011.1 926.2
03 22.03 С 3 20 км ясно +14.6 +5.2 53 +14 +14 1014.0 929.4
06 22.03 СЗ 4 20 км 1/0
[Cs]
+12.2 +4.6 60 +11 +11 1013.8 929.4
09 22.03 З 2 20 км 3/0
[Cs]
+9.0 +4.7 74 +7 +7 1014.4 929.6
12 22.03 ЮВ 3 20 км ясно +13.6 +5.4 58 +13 +15 1017.4 932.4 +8.1 +21.0
15 22.03 В 4 20 км ясно +19.8 +7.5 45 +21 +29 комфорт 1017.8 932.9
18 22.03 штиль 0 20 км ясно +22.8 +5.8 33 +23 +40 комфорт 1015.1 930.5
21 22.03 СВ 3 20 км ясно +26.1 +5.9 27 +25 +27 комфорт 1012.5 928.1
00 23.03 С 2 20 км ясно +21.2 +6.8 39 +22 +22 комфорт 1013.3 928.8 +13.6 +27.0
03 23.03 СЗ 4 20 км ясно +16.5 +6.0 50 +16 +16 1013.6 929.3
06 23.03 С 4 20 км ясно +14.2 +7.3 63 +13 +13 1012.5 928.4
09 23.03 З 4 20 км 4/0
[Cs]
+13.2 +7.7 69 +12 +12 1011.4 927.7
12 23.03 ЮЗ 2 20 км 9/0
[Ac As Cs]
+13.7 +7.8 68 +14 +14 1012.5 928.1 +10.6 +21.2
15 23.03 В 4 20 км 1/0
[Cs]
+24.7 +8.7 36 +25 +33 комфорт 1012.0 928.5
18 23.03 В 3 20 км 1/0
[Ci]
+28.1 +8.7 30 +28 +38 жарко 1011.1 927.8
21 23.03 В 5 20 км ясно +28.3 +10.0 32 +29 +30 жарко 1010.7 927.3
00 24.03 Ю 2 20 км ясно +21.8 +7.2 39 +23 +23 комфорт 1014.3 929.8 +13.8 +28.7
03 24.03 Ю 2 20 км 1/0
[Cs]
+15.8 +7.7 59 +16 +16 1016.9 932.9
06 24.03 Ю 2 20 км ясно +13.4 +4.1 53 +13 +13 1019.1 935.0
09 24.03 Ю 3 20 км 6/0
[Ac und]
+14.0 +2.1 44 +13 +13 1020.5 936.4
12 24.03 Ю 1 20 км 1/0
[Ci]
+13.3 +4.2 54 +14 +16 1023.6 938.2 +9.6 +21.8
15 24.03 В 4 20 км ясно +18.0 +1.0 32 +18 +27 1022.7 937.3
18 24.03 С 2 20 км 3/0
[Ci]
+21.2 +0.8 26 +21 +33 комфорт 1019.3 934.2
21 24.03 В 4 20 км 6/0
[Cs]
+22.0 +1.6 26 +22 +23 комфорт 1017.2 932.5
00 25.03 ЮВ 2 20 км ясно +16.9 +4.1 43 +17 +17 1019.1 933.4 +13.3 +23.1
03 25.03 ЮВ 2 20 км 4/0
[Cs]
+11.5 +4.2 61 +11 +11 1020.4 934.6
06 25.03 Ю 2 <50 м 9/0 1500 м
[Cs]
+10.4 +3.6 63 +9 +9 1019.7 934.2
09 25.03 Ю 2 20 км 9/0
[Ac As Cs]
+9.6 +4.1 69 +9 +9 1019.2 933.8
12 25.03 Ю 2 20 км 6/3 1050 м
[Sc Ac und]
+10.0 +3.9 66 +9 +10 1021.4 935.0 +7.7 +17.0
15 25.03 ЮВ 3 20 км 4/0
[Ac und]
+17.6 +4.6 42 +18 +25 1020.9 935.0
18 25.03 В 5 20 км 3/0
[Ac lent]
+20.3 +2.8 31 +21 +25 комфорт 1019.5 933.8
21 25.03 В 5 20 км 3/0
[Ac und]
+21.4 +1.8 27 +21 +22 комфорт 1018.8 933.3
00 26.03 СВ 2 20 км ясно +15.6 +4.4 47 +16 +16 1022.6 936.0 +10.0 +22.3
03 26.03 З 2 20 км ясно +11.8 +5.3 64 +11 +11 1023.4 937.3
06 26.03 Ю 2 20 км 5/0
[Ac As]
+9.8 +5.1 73 +9 +9 1023.1 937.0

 

Местоположение метеостанции Сан-Рафаэль (Аргентина): широта -34.58 долгота -68.40 высота над уровнем моря 748 м.

В архиве по умолчанию представлена погода в Сан-Рафаэле за последнюю неделю. Архивные данные за месяц целиком и за предыдущие месяцы, начиная с января 2011 года, Вы можете получить, выбрав интересующий диапазон дат из раскрывающегося списка и нажав кнопку "Ввод!".


*Определитесь, кто Вы:
робот инопланетянин человек

Внимание! Время в таблицах - всемирное. Для получения местного времени необходимо прибавить поправку, которая равна -3 ч.

Смотрите также архив погоды в соседних городах и на ближайших метеорологических станциях:

Погода в Маларгуэ (Аргентина) (148 км)
Погода в Сан-Мартине (Аргентина) (167 км)
Погода в Мендосе (Аргентина) (198 км)
Погода в Сан-Хосе-де-Майпо (Чили) (209 км)
Погода в Сантьяго Агуас Андинас (Чили) (229 км)
Погода в Сан-Луисе (Аргентина) (239 км)
Погода в Сантьяго (Чили) (246 км)
Погода в Талаганте (Чили) (247 км)
Погода на Пасо Лос Либертадорес (Чили) (250 км)
Погода в Пудауэле (Чили) (257 км)

Пояснения к столбцам:

Ветер - указаны скорость ветра в м/с - средняя за 10 мин, порывы в срок и между сроками (в фигурных скобках) и направление, откуда дует ветер: С - северный, СВ - северо-восточный, В - восточный, ЮВ - юго-восточный, Ю - южный, ЮЗ - юго-западный, З - западный, СЗ - северо-западный.
Видимость - горизонтальная дальность видимости в метрах или километрах. При видимости от 1 до 10 км при отсутствии осадков обычно наблюдается дымка, при ухудшении видимости до 1 км и менее - туман. В сухую погоду видимость может ухудшаться дымом, пылью или мглою.
Явления - указаны атмосферные явления, наблюдавшиеся в срок или в последний час перед сроком; фигурными скобками обозначены явления, наблюдавшиеся между сроками (за 1-3 часа до срока); квадратными скобками обозначены град или гололедные отложения с указанием их диаметра в мм.
Облачность - указаны через наклонную черту общая и нижняя облачность в баллах и высота нижней границы облаков в метрах; квадратными скобками обозначены формы облаков: Ci - перистые, Cs - перисто-слоистые, Cc - перисто-кучевые, Ac - высококучевые, As - высокослоистые, Sc - слоисто-кучевые, Ns - слоисто-дождевые, Cu - кучевые, Cb - кучево-дождевые. Подробнее классификацию облаков см. в Атласе облаков (PDF).
T - Температура воздуха - температура, измеренная на высоте 2 м над землей.
Td - Температура точки росы - температура, при понижении до которой содержащийся в воздухе водяной пар достигнет насыщения.
f - Относительная влажность воздуха - влажноcть воздуха, измеренная на высоте 2 м над землей.
Te - Эффективная температура - температура, которую ощущает одетый по сезону человек в тени. Характеристика душности погоды. При расчете учитывается влияние влажности воздуха и скорости ветра на теплоощущения человека.
Tes - Эффективная температура на солнце - температура, которую ощущает человек, с поправкой на солнечный нагрев. Характеристика знойности погоды. Зависит от высоты солнца над горизонтом, облачности и скорости ветра. Ночью, в пасмурную погоду, а также при ветре 12 м/с и более поправка равна нулю.
P - Атмосферное давление - приведенное к уровню моря атмосферное давление.
Po - Атмосферное давление - измеренное на уровне метеостанции атмосферное давление.
Tmin - Минимальная температура - минимум температуры воздуха на высоте 2 м над землей.
Tmax - Максимальная температура - максимум температуры воздуха на высоте 2 м над землей.
R - Количество осадков - Количество выпавших осадков за период времени, мм. При наведении курсора мыши на число - период времени, за который выпало указанное количество осадков.
R24 - Количество осадков - Количество выпавших осадков за 24 часа, мм.
S - Снежный покров - Высота снежного покрова, см. При наведении курсора мыши на число - состояние снежного покрова и степень покрытия местности в баллах.